| time (UTC) | temp F | wind direction | speed knots | gust knots | rain 1hr in | rain 24hr in | rain mn in | humidity % | barometer mb |
| 20260905171554 | 68 | 25 | 0.0 | 5.2 | 0.00 | 0.00 | 0.00 | 80 | 1009.6 |
| 20260905170108 | 66 | 314 | 0.9 | 6.1 | 0.00 | 0.00 | 0.00 | 79 | 1009.6 |
| 20260905164600 | 67 | 355 | 1.7 | 7.8 | 0.00 | 0.00 | 0.00 | 78 | 1009.6 |
| 20260905163050 | 67 | 5 | 3.5 | 7.8 | 0.00 | 0.00 | 0.00 | 79 | 1009.6 |
| 20260905161604 | 67 | 325 | 1.7 | 7.0 | 0.00 | 0.00 | 0.00 | 80 | 1009.6 |
| 20260905160049 | 67 | 355 | 0.9 | 9.6 | 0.00 | 0.00 | 0.00 | 79 | 1009.8 |
| 20260905154548 | 67 | 317 | 2.6 | 8.7 | 0.00 | 0.00 | 0.00 | 81 | 1009.8 |
| 20260905153045 | 66 | 333 | 0.0 | 7.8 | 0.00 | 0.00 | 0.00 | 80 | 1009.8 |
| 20260905151545 | 66 | 350 | 0.0 | 3.5 | 0.00 | 0.00 | 0.00 | 79 | 1009.8 |
| 20260905150044 | 66 | 317 | 0.0 | 0.0 | 0.00 | 0.00 | 0.00 | 79 | 1009.7 |
| 20260905144542 | 66 | 340 | 0.0 | 0.0 | 0.00 | 0.00 | 0.00 | 80 | 1009.7 |
| 20260905143040 | 65 | 24 | 0.0 | 0.0 | 0.00 | 0.00 | 0.00 | 82 | 1009.7 |
| 20260905141537 | 64 | 318 | 0.0 | 0.9 | 0.00 | 0.00 | 0.00 | 83 | 1009.9 |
| 20260905140037 | 65 | 38 | 0.0 | 7.8 | 0.00 | 0.00 | 0.00 | 85 | 1009.9 |
| 20260905134535 | 64 | 306 | 0.0 | 7.0 | 0.00 | 0.00 | 0.00 | 86 | 1009.9 |
| 20260905133036 | 64 | 334 | 0.0 | 4.3 | 0.00 | 0.00 | 0.00 | 86 | 1009.9 |
| 20260905131529 | 63 | 349 | 0.9 | 6.1 | 0.00 | 0.00 | 0.00 | 87 | 1009.8 |
| 20260905130029 | 63 | 298 | 0.0 | 6.1 | 0.00 | 0.00 | 0.00 | 87 | 1009.7 |
| 20260905124524 | 62 | 355 | 0.0 | 0.0 | 0.00 | 0.00 | 0.00 | 88 | 1009.6 |
| 20260905123023 | 61 | 321 | 0.0 | 0.0 | 0.00 | 0.00 | 0.00 | 88 | 1009.5 |
| 20260905121523 | 59 | 360 | 0.0 | 0.0 | 0.00 | 0.00 | 0.00 | 88 | 1009.5 |
| 20260905120020 | 59 | 26 | 0.0 | 0.0 | 0.00 | 0.00 | 0.00 | 88 | 1009.4 |
| 20260905114519 | 58 | 344 | 0.0 | 0.0 | 0.00 | 0.00 | 0.00 | 88 | 1009.2 |
| 20260905113018 | 58 | 355 | 0.0 | 0.0 | 0.00 | 0.00 | 0.00 | 88 | 1009.2 |
| 20260905111520 | 58 | 317 | 0.0 | 0.0 | 0.00 | 0.00 | 0.00 | 88 | 1009.0 |
| 20260905110017 | 58 | 292 | 0.0 | 0.0 | 0.00 | 0.00 | 0.00 | 88 | 1009.0 |
| 20260905104514 | 58 | 264 | 0.0 | 0.0 | 0.00 | 0.01 | 0.00 | 88 | 1008.9 |
| 20260905103015 | 57 | 326 | 0.0 | 0.0 | 0.00 | 0.01 | 0.00 | 89 | 1008.8 |
| 20260905101512 | 57 | 334 | 0.0 | 0.0 | 0.00 | 0.01 | 0.00 | 89 | 1008.8 |
| 20260905100017 | 58 | 271 | 0.0 | 0.0 | 0.00 | 0.01 | 0.00 | 88 | 1008.8 |
| 20260905094509 | 58 | 336 | 0.0 | 0.0 | 0.00 | 0.01 | 0.00 | 89 | 1008.6 |
| 20260905093008 | 58 | 360 | 0.0 | 9.6 | 0.00 | 0.01 | 0.00 | 89 | 1008.5 |
| 20260905091511 | 58 | 309 | 0.0 | 0.0 | 0.00 | 0.01 | 0.00 | 88 | 1008.5 |
| 20260905090010 | 58 | 311 | 0.0 | 9.6 | 0.00 | 0.01 | 0.00 | 88 | 1008.4 |
| 20260905084506 | 58 | 355 | 0.0 | 7.0 | 0.00 | 0.01 | 0.00 | 88 | 1008.3 |
| 20260905083006 | 58 | 314 | 2.6 | 9.6 | 0.00 | 0.01 | 0.00 | 88 | 1008.2 |
| 20260905081504 | 58 | 317 | 0.9 | 9.6 | 0.00 | 0.01 | 0.00 | 89 | 1008.3 |
| 20260905080003 | 58 | 319 | 0.0 | 0.0 | 0.00 | 0.01 | 0.00 | 88 | 1008.4 |
| 20260905074503 | 58 | 348 | 0.0 | 0.0 | 0.00 | 0.01 | 0.00 | 88 | 1008.5 |
| 20260905073101 | 59 | 28 | 0.0 | 0.0 | 0.00 | 0.01 | 0.00 | 88 | 1008.5 |
| 20260905071603 | 59 | 347 | 0.0 | 0.0 | 0.00 | 0.01 | 0.00 | 88 | 1008.6 |
| 20260905070059 | 59 | 315 | 0.0 | 0.0 | 0.00 | 0.01 | 0.00 | 88 | 1008.7 |
| 20260905064612 | 59 | 335 | 0.0 | 0.0 | 0.00 | 0.01 | 0.00 | 88 | 1008.7 |
| 20260905063054 | 60 | 335 | 0.0 | 0.0 | 0.00 | 0.01 | 0.00 | 88 | 1008.9 |
| 20260905061552 | 60 | 339 | 0.0 | 0.0 | 0.00 | 0.01 | 0.00 | 88 | 1009.0 |
| 20260905060050 | 61 | 336 | 0.0 | 0.0 | 0.00 | 0.01 | 0.00 | 88 | 1009.0 |
| 20260905054632 | 61 | 321 | 0.0 | 0.0 | 0.00 | 0.01 | 0.00 | 87 | 1009.1 |
| 20260905053046 | 62 | 321 | 0.0 | 0.0 | 0.00 | 0.01 | 0.00 | 86 | 1009.1 |
| 20260905051542 | 63 | 296 | 0.0 | 0.0 | 0.00 | 0.01 | 0.00 | 86 | 1009.2 |
| 20260905050042 | 63 | 346 | 1.7 | 7.0 | 0.00 | 0.01 | 0.00 | 86 | 1009.2 |
| 20260905044539 | 63 | 307 | 0.0 | 5.2 | 0.00 | 0.01 | 0.00 | 85 | 1009.3 |
| 20260905043040 | 63 | 338 | 2.6 | 6.1 | 0.00 | 0.01 | 0.00 | 85 | 1009.2 |
| 20260905041539 | 63 | 360 | 0.9 | 8.7 | 0.00 | 0.01 | 0.00 | 86 | 1009.2 |
| 20260905040038 | 63 | 309 | 1.7 | 7.8 | 0.00 | 0.01 | 0.00 | 86 | 1009.3 |
| 20260905034536 | 63 | 327 | 0.0 | 0.0 | 0.00 | 0.01 | 0.01 | 87 | 1009.3 |
| 20260905033039 | 63 | 11 | 0.0 | 0.0 | 0.00 | 0.01 | 0.01 | 87 | 1009.3 |
| 20260905031538 | 62 | 17 | 0.0 | 0.0 | 0.00 | 0.01 | 0.01 | 87 | 1009.2 |
| 20260905030037 | 63 | 302 | 0.0 | 0.0 | 0.00 | 0.01 | 0.01 | 87 | 1009.5 |
| 20260905024538 | 63 | 321 | 0.0 | 0.0 | 0.00 | 0.01 | 0.01 | 87 | 1009.4 |
| 20260905023034 | 63 | 350 | 0.0 | 0.0 | 0.00 | 0.01 | 0.01 | 87 | 1009.6 |
| 20260905021534 | 63 | 36 | 0.0 | 0.0 | 0.00 | 0.01 | 0.01 | 87 | 1009.8 |
| 20260905020037 | 63 | 36 | 0.0 | 0.0 | 0.00 | 0.01 | 0.01 | 87 | 1009.8 |
| 20260905014532 | 63 | 36 | 0.0 | 0.0 | 0.00 | 0.01 | 0.01 | 87 | 1009.9 |
| 20260905013032 | 63 | 36 | 0.0 | 0.0 | 0.00 | 0.01 | 0.01 | 87 | 1009.9 |
| 20260905011530 | 63 | 138 | 0.0 | 0.0 | 0.00 | 0.01 | 0.01 | 86 | 1009.9 |
| 20260905010037 | 63 | 138 | 0.0 | 0.0 | 0.00 | 0.01 | 0.01 | 86 | 1009.7 |
| 20260905004529 | 63 | 355 | 0.0 | 0.0 | 0.00 | 0.01 | 0.01 | 86 | 1009.6 |
| 20260905003028 | 63 | 355 | 0.0 | 0.0 | 0.00 | 0.01 | 0.01 | 85 | 1009.6 |
| 20260905001529 | 63 | 36 | 0.0 | 0.0 | 0.00 | 0.01 | 0.01 | 85 | 1009.4 |
| 20260905000034 | 64 | 323 | 0.0 | 0.0 | 0.00 | 0.01 | 0.01 | 84 | 1009.3 |
| 20260904234528 | 65 | 322 | 0.0 | 0.0 | 0.00 | 0.01 | 0.01 | 83 | 1009.1 |
| 20260904233028 | 66 | 322 | 0.0 | 0.0 | 0.00 | 0.01 | 0.01 | 81 | 1009.1 |
| 20260904231527 | 67 | 19 | 0.0 | 0.0 | 0.00 | 0.01 | 0.01 | 80 | 1009.1 |
| 20260904230031 | 67 | 341 | 0.0 | 0.0 | 0.00 | 0.01 | 0.01 | 78 | 1009.0 |
| 20260904224526 | 68 | 336 | 0.0 | 0.0 | 0.00 | 0.01 | 0.01 | 77 | 1009.0 |
| 20260904223026 | 69 | 330 | 0.0 | 0.0 | 0.00 | 0.01 | 0.01 | 76 | 1009.0 |
| 20260904221528 | 70 | 318 | 0.0 | 0.0 | 0.00 | 0.01 | 0.01 | 74 | 1008.8 |
| 20260904220024 | 70 | 340 | 0.0 | 0.0 | 0.00 | 0.01 | 0.01 | 74 | 1008.8 |
| 20260904214523 | 70 | 32 | 0.0 | 0.0 | 0.00 | 0.01 | 0.01 | 74 | 1008.8 |
| 20260904213023 | 70 | 336 | 1.7 | 7.0 | 0.00 | 0.01 | 0.01 | 73 | 1009.1 |
| 20260904211522 | 71 | 11 | 2.6 | 10.4 | 0.00 | 0.01 | 0.01 | 72 | 1009.0 |
| 20260904210024 | 71 | 296 | 2.6 | 9.6 | 0.00 | 0.01 | 0.01 | 73 | 1009.1 |
| 20260904204520 | 71 | 360 | 0.9 | 6.1 | 0.00 | 0.01 | 0.01 | 73 | 1008.9 |
| 20260904203022 | 71 | 331 | 2.6 | 7.8 | 0.00 | 0.01 | 0.01 | 73 | 1009.0 |
| 20260904201519 | 72 | 310 | 1.7 | 7.0 | 0.00 | 0.01 | 0.01 | 71 | 1009.0 |
| 20260904200020 | 72 | 21 | 1.7 | 6.1 | 0.00 | 0.01 | 0.01 | 72 | 1009.1 |
| 20260904194519 | 73 | 314 | 0.0 | 8.7 | 0.00 | 0.01 | 0.01 | 69 | 1009.2 |
| 20260904193016 | 74 | 340 | 1.7 | 10.4 | 0.00 | 0.01 | 0.01 | 66 | 1009.1 |
| 20260904191516 | 74 | 275 | 1.7 | 9.6 | 0.00 | 0.01 | 0.01 | 67 | 1009.1 |
| 20260904190016 | 75 | 301 | 1.7 | 9.6 | 0.00 | 0.01 | 0.01 | 66 | 1009.1 |
| 20260904184514 | 73 | 215 | 0.9 | 8.7 | 0.00 | 0.01 | 0.01 | 69 | 1009.3 |
| 20260904183013 | 73 | 250 | 0.9 | 6.1 | 0.00 | 0.01 | 0.01 | 66 | 1009.5 |
| 20260904181513 | 73 | 315 | 2.6 | 7.8 | 0.00 | 0.01 | 0.01 | 70 | 1009.3 |
| 20260904180013 | 73 | 209 | 1.7 | 7.8 | 0.00 | 0.01 | 0.01 | 70 | 1009.6 |
| 20260904174515 | 73 | 348 | 1.7 | 7.0 | 0.00 | 0.01 | 0.01 | 67 | 1009.8 |